Austin, Texas, United States (73301)
Lat: 30.27N, Lon: 97.74W
Wx Zone: TXZ192
Local Info
Past Weather Observations for Today

NOTE: This archive is for the closest National Weather Service station to Austin. Information may differ from the station used for current weather conditions.

Click here for Long-term Archive

Time Weather Temperature Dewpoint Humidity Pressure Winds Precip Visibility
17:51
Clear
61°F / 16°C 45°F / 7°C 55% 30.06 in
(1018 mb)
N 12.7 mph
(N 20 kph)
- 10SM
16:51
Partly Cloudy
63°F / 17°C 46°F / 8°C 56% 30.04 in
(1017 mb)
NNW 8.1 mph
(NNW 13 kph)
- 10SM
15:51
Partly Cloudy
66°F / 19°C 52°F / 11°C 60% 30.01 in
(1016 mb)
NNW 11.5 mph
(NNW 19 kph)
- 10SM
14:51
Partly Cloudy
70°F / 21°C 52°F / 11°C 53% 29.95 in
(1014 mb)
N 11.5 mph
(N 19 kph)
- 10SM
13:51
Partly Cloudy
72°F / 22°C 55°F / 13°C 57% 29.95 in
(1014 mb)
NNW 8.1 mph
(NNW 13 kph)
- 10SM
12:51
Partly Cloudy
72°F / 22°C 55°F / 13°C 57% 29.95 in
(1014 mb)
NNW 8.1 mph
(NNW 13 kph)
- 10SM
11:51
Mostly Cloudy
72°F / 22°C 57°F / 14°C 61% 29.98 in
(1015 mb)
NW 8.1 mph
(NW 13 kph)
- 10SM
10:51
Mostly Cloudy
70°F / 21°C 61°F / 16°C 73% 29.95 in
(1014 mb)
Variable 6.9 mph
(Variable 11 kph)
- 10SM
09:51
Overcast
64°F / 18°C 61°F / 16°C 88% 29.95 in
(1014 mb)
Variable 3.5 mph
(Variable 6 kph)
- 10SM
09:43
Overcast
64°F / 18°C 61°F / 16°C 88% 29.95 in
(1014 mb)
Calm - 9SM
09:17
Overcast
64°F / 18°C 61°F / 16°C 88% 29.95 in
(1014 mb)
Calm - 10SM
08:51
Overcast
63°F / 17°C 61°F / 16°C 94% 29.95 in
(1014 mb)
SW 4.6 mph
(SW 7 kph)
- 7SM
08:16
Overcast
Fog And Mist
63°F / 17°C 61°F / 16°C 94% 29.92 in
(1013 mb)
Variable 3.5 mph
(Variable 6 kph)
- 5SM
07:51
Overcast
Fog And Mist
61°F / 16°C 61°F / 16°C 100% 29.92 in
(1013 mb)
S 3.5 mph
(S 6 kph)
- 5SM
06:51
Overcast
Fog And Mist
61°F / 16°C 61°F / 16°C 100% 29.92 in
(1013 mb)
S 3.5 mph
(S 6 kph)
- 5SM
05:51
Overcast
Fog And Mist
61°F / 16°C 61°F / 16°C 100% 29.89 in
(1012 mb)
S 4.6 mph
(S 7 kph)
- 5SM
04:51
Overcast
Fog And Mist
61°F / 16°C 61°F / 16°C 100% 29.92 in
(1013 mb)
Calm - 5SM
03:51
Overcast
61°F / 16°C 61°F / 16°C 100% 29.92 in
(1013 mb)
SSE 3.5 mph
(SSE 6 kph)
- 7SM
03:17
Overcast
61°F / 16°C 61°F / 16°C 100% 29.92 in
(1013 mb)
Calm - 7SM
03:06
Overcast
61°F / 16°C 61°F / 16°C 100% 29.92 in
(1013 mb)
Variable 4.6 mph
(Variable 7 kph)
- 7SM
02:51
Overcast
Fog And Mist
61°F / 16°C 61°F / 16°C 100% 29.92 in
(1013 mb)
Variable 5.8 mph
(Variable 9 kph)
0.01 in
(0.25 mm)
4SM
01:58
Overcast
Light Rain
61°F / 16°C 61°F / 16°C 100% 29.92 in
(1013 mb)
S 5.8 mph
(S 9 kph)
0.00 in
(0.00 mm)
6SM
01:51
Overcast
Fog And Mist
61°F / 16°C 61°F / 16°C 100% 29.92 in
(1013 mb)
S 6.9 mph
(S 11 kph)
0.00 in
(0.00 mm)
6SM
01:01
Overcast
Light Rain
61°F / 16°C 61°F / 16°C 100% 29.95 in
(1014 mb)
SSE 3.5 mph
(SSE 6 kph)
0.00 in
(0.00 mm)
4SM
00:51
Overcast
Light Rain
61°F / 16°C 61°F / 16°C 100% 29.95 in
(1014 mb)
Variable 3.5 mph
(Variable 6 kph)
0.01 in
(0.25 mm)
4SM
00:48
Overcast
Light Rain
61°F / 16°C 61°F / 16°C 100% 29.95 in
(1014 mb)
S 4.6 mph
(S 7 kph)
0.00 in
(0.00 mm)
4SM
Time Weather Temperature Dewpoint Humidity Pressure Winds Precip Visibility


Weather for websites

WeatherForYou.com, LLC is not responsible for any damages or problems caused by this service. Current weather conditions are obtained from the closest station including government and personal stations which may have varying degrees of accuracy. Weather forecasts are derived from the NOAA NDFD. Like all things, this site belongs to Jesus Christ... He just trusts me to maintain it. If you have any questions or comments email webmaster@weatherforyou.com

Copyright © 2015, WeatherForYou.com LLC. All rights reserved.